Tracking 28790 objects as of 19-Apr-2024
HD Live streaming from Space Station
objects crossing your sky now

ATLAS 5 CENTAUR R/B

Track ATLAS 5 CENTAUR R/B now!


NORAD ID: 51851
Int'l Code: 2022-021B
Perigee: 8,304.6 km
Apogee: 34,897.6 km
Inclination: 8.5 °
Period: 776.0 minutes
Semi major axis: 27972 km
RCS: Unknown
Launch date: March 1, 2022
Source: United States (US)
Launch site: AIR FORCE EASTERN TEST RANGE (AFETR)

Note: This is a ROCKET BODY
Your satellite tracking list
Your tracking list is empty




NASA's NSSDC Master Catalog

Two Line Element Set (TLE):
1 51851U 22021B   24109.58765704 -.00000208  00000-0  00000+0 0  9995
2 51851   8.5193 261.4351 4753487 322.7933  12.0195  1.85573392 14430
Source of the keplerian elements: AFSPC